Wind_Speed
10 10 10 11 11 11 11 10 9 9 8 8 8 8 9 10 11 13 15 17 20 22 24 27 29 32 34 35 37 38 40 41 42 43 43 43 44 45 46 46 46 47 47 47
9 9 9 9 9 9 9 8 8 7 7 7 7 8 9 11 13 14 16 19 21 24 26 29 32 35 37 39 40 42 43 44 45 46 47 47 47 48 48 48 48 48 48 48
9 8 8 7 7 6 6 7 6 6 6 6 7 9 11 13 14 16 19 21 23 25 28 31 33 36 39 41 43 45 46 47 48 48 49 50 50 50 49 49 49 49 49 48
8 7 7 6 6 5 5 4 4 4 5 6 8 10 12 15 17 19 21 23 26 28 31 33 36 38 40 42 44 46 47 48 49 50 50 51 51 50 50 50 50 49 49 49
7 6 6 4 4 3 2 2 3 4 6 7 9 11 13 16 19 22 25 27 29 31 34 36 38 40 43 45 46 47 49 50 50 51 51 52 51 51 51 50 50 50 49 49
6 5 4 3 2 1 2 3 5 6 8 10 11 14 16 18 21 24 27 30 33 35 38 40 42 44 46 47 49 50 51 52 52 52 52 52 52 51 51 51 50 50 50 49
4 3 2 1 0 2 3 4 6 8 10 11 13 16 18 21 23 26 29 31 34 36 39 42 44 47 49 50 52 53 54 54 55 54 54 54 53 52 52 51 51 51 51 50
2 1 1 2 3 4 5 7 8 9 11 13 15 18 20 22 25 28 30 33 36 38 40 42 45 47 49 51 53 54 55 56 56 55 55 54 54 53 52 52 52 51 50 50
3 2 3 4 5 6 7 8 10 12 14 16 18 20 22 24 27 30 32 35 38 40 42 44 46 48 49 51 52 53 54 55 55 55 55 54 54 53 52 52 51 51 51 50
3 4 5 5 6 7 9 10 12 14 16 19 21 23 25 27 29 32 35 38 40 41 43 45 48 49 51 52 53 54 54 54 54 53 53 52 52 52 52 51 50 50 50 49
3 5 6 7 9 10 11 13 15 18 20 22 24 26 29 31 34 36 39 41 42 44 46 47 49 50 52 52 53 53 53 53 53 53 53 52 51 51 50 50 49 49 49 49
5 7 8 10 12 13 15 17 19 21 23 25 27 30 32 35 37 40 42 43 45 46 47 49 50 51 51 52 52 52 52 52 52 52 52 52 51 50 49 49 49 49 48 48
8 9 11 13 14 16 18 20 22 24 26 28 30 33 36 38 40 42 44 45 46 47 48 49 50 51 51 50 51 51 51 50 50 50 50 50 50 50 49 48 48 48 47 47
10 12 14 15 17 19 21 23 25 27 30 32 34 37 39 41 43 45 46 47 48 48 49 49 50 50 50 49 49 48 48 48 48 48 48 48 48 48 48 48 48 47 46 46
13 15 16 18 20 22 24 26 29 31 33 36 38 40 43 45 46 47 48 49 49 49 50 50 50 49 49 48 47 47 47 47 46 46 46 46 46 46 46 47 47 47 47 46
15 17 19 21 23 25 27 30 32 34 37 39 42 44 46 48 49 49 50 50 50 50 51 51 49 48 47 47 46 46 46 46 45 44 44 44 44 44 45 45 46 46 46 46
18 20 22 24 26 28 30 33 35 38 41 43 45 47 49 50 51 51 51 51 51 51 51 50 48 47 47 47 46 46 45 45 45 43 43 43 43 43 43 44 44 45 45 45
21 23 24 26 29 31 34 36 39 41 44 47 48 50 51 52 52 52 52 52 52 51 51 50 48 48 47 47 45 44 43 43 43 43 42 41 41 41 42 42 43 43 44 45
23 25 27 29 32 34 37 39 42 45 47 49 51 52 53 54 54 54 53 53 52 51 49 49 48 47 46 44 42 41 40 40 39 39 39 39 39 39 39 40 40 41 42 43
25 27 29 32 34 37 39 42 45 47 49 51 53 54 55 55 55 55 55 53 52 51 49 47 46 44 42 40 39 38 37 37 36 35 35 36 36 36 37 37 38 39 40 40
27 29 31 34 36 39 42 44 47 49 52 54 55 55 56 57 57 56 55 53 52 50 48 46 44 42 39 37 36 36 36 35 34 34 33 33 32 32 33 35 36 37 38 39
29 31 33 36 39 41 44 47 49 52 54 56 56 57 57 57 57 57 56 53 50 48 46 44 42 39 37 36 36 36 35 34 33 31 30 29 28 29 30 31 32 34 36 36
31 33 35 38 41 44 47 49 52 54 56 57 58 58 58 58 58 57 55 52 50 47 44 41 39 37 36 36 35 35 33 31 29 28 27 26 26 26 26 28 30 32 34 35
32 34 37 40 43 46 49 51 53 55 57 58 58 59 59 59 59 57 55 51 48 45 42 39 37 36 35 34 33 32 30 27 26 25 25 25 25 25 25 26 27 29 31 33
34 36 39 42 45 48 50 52 55 57 58 59 59 59 60 60 58 56 53 49 46 42 38 36 35 34 33 32 30 28 26 24 23 22 22 22 22 23 23 24 25 26 28 30
35 38 41 43 47 49 52 54 56 57 58 59 59 60 60 59 57 54 51 47 43 40 37 35 34 33 31 29 27 25 23 21 20 20 19 19 19 20 20 22 23 24 26 27
37 39 42 45 49 51 53 55 57 58 59 59 59 59 59 58 56 53 49 45 42 38 36 34 32 30 28 26 24 22 20 19 18 17 17 17 17 17 18 19 21 22 23 25
Wind_Direction
130 131 131 134 138 141 145 145 151 156 163 170 179 190 203 217 225 232 238 243 248 251 254 257 258 259 260 261 262 263 262 263 263 264 264 264 264 264 265 265 266 266 267 267
129 129 128 133 140 147 153 160 167 176 187 198 211 222 232 238 242 245 249 252 254 256 258 260 262 263 263 264 264 265 265 265 265 265 265 265 265 265 266 265 265 266 267 267
130 131 129 130 134 141 154 167 178 192 209 225 239 247 252 254 257 258 259 260 261 262 264 265 266 266 266 267 268 268 267 268 268 267 266 266 266 266 266 266 266 266 266 266
125 125 123 120 123 134 145 162 182 203 230 249 257 260 262 264 265 266 267 267 267 268 269 270 271 270 270 269 269 269 269 269 268 268 268 267 267 267 266 266 265 265 265 266
123 125 118 113 121 142 178 210 234 254 263 270 272 273 273 272 271 271 271 271 271 272 272 273 273 273 272 272 272 272 272 271 270 269 269 268 268 267 266 265 265 264 264 264
119 121 126 121 128 173 248 256 269 274 277 278 278 278 278 279 279 278 277 275 274 274 274 275 275 275 274 273 273 273 273 272 272 271 270 269 268 267 266 265 265 264 263 263
124 124 120 84 307 297 290 297 293 291 290 289 288 286 284 283 282 282 280 279 278 277 277 277 277 276 276 275 275 274 274 273 272 271 270 270 268 267 266 265 264 264 263 263
99 77 25 359 332 317 312 311 307 304 301 298 295 293 291 290 289 288 286 284 282 281 280 280 280 279 278 277 276 275 274 273 272 271 270 269 268 267 265 265 264 263 262 262
59 40 13 359 346 334 323 316 312 308 305 303 302 299 297 295 293 292 291 289 287 285 284 283 282 282 280 279 277 276 276 275 274 272 271 269 267 266 265 264 262 261 260 260
41 19 3 351 342 335 328 323 318 315 311 308 306 303 301 299 298 297 296 294 292 290 288 287 286 284 283 281 279 277 276 275 274 272 271 269 267 265 263 262 261 260 259 258
6 356 347 340 334 329 324 321 318 316 314 312 310 308 306 303 302 301 300 298 296 293 292 290 288 287 285 282 280 279 278 277 274 272 270 269 266 265 263 261 260 258 257 256
332 332 330 328 327 325 322 321 320 318 317 315 313 311 309 307 306 304 303 302 299 297 295 293 291 289 287 284 281 280 279 277 275 273 271 268 266 264 262 260 258 257 256 255
318 321 323 323 324 324 323 322 321 319 318 317 315 314 313 311 309 308 306 304 303 300 298 296 294 292 289 286 283 282 280 278 276 273 271 269 266 263 260 258 257 255 254 253
314 318 319 321 322 322 321 321 320 320 319 318 317 316 315 314 312 311 309 307 305 303 300 298 296 293 290 287 285 283 281 279 278 275 273 270 267 264 260 256 254 253 252 250
313 317 318 319 320 320 321 321 320 320 320 319 319 318 317 316 315 313 310 308 307 305 302 300 298 296 292 289 286 285 283 282 279 276 274 271 267 263 259 256 254 252 250 250
313 315 317 318 319 320 321 321 321 321 321 320 320 319 318 317 316 314 311 309 308 306 304 302 300 298 294 290 288 286 284 282 280 277 274 271 267 263 260 257 254 251 249 248
311 314 316 317 319 320 321 321 322 322 321 321 321 321 320 319 318 316 313 311 309 307 306 304 301 298 296 294 291 287 285 282 280 278 275 271 268 264 260 257 253 249 246 244
309 313 315 317 319 320 320 321 322 322 322 322 322 322 321 320 319 317 315 313 311 309 307 305 302 300 297 296 294 291 287 283 280 278 275 271 268 264 260 256 253 249 245 244
308 312 315 317 319 320 320 321 322 322 322 323 323 323 323 322 321 319 317 315 313 311 309 306 304 302 300 298 296 292 289 286 282 280 276 272 268 264 259 255 251 247 243 242
307 311 314 317 318 320 320 321 322 323 323 324 324 324 324 323 322 321 319 316 314 312 310 307 305 304 302 299 297 295 292 288 285 282 278 274 268 263 258 254 249 245 242 240
307 311 314 316 318 319 320 321 322 323 324 325 325 325 325 324 323 322 320 318 315 314 311 309 307 305 302 300 298 297 294 290 287 283 279 274 269 263 257 252 248 243 240 239
307 311 313 316 318 319 320 321 322 323 324 325 326 326 325 324 324 323 321 319 317 315 312 310 308 306 304 301 299 298 296 292 289 284 278 272 268 263 256 250 245 241 238 237
307 310 313 316 318 319 321 322 323 324 325 326 326 326 326 325 325 324 322 320 318 316 314 311 309 307 305 303 302 300 297 292 288 284 277 271 266 262 256 249 243 239 237 234
307 311 314 316 318 320 321 322 323 325 326 326 326 326 326 326 325 325 323 322 319 317 315 312 310 308 306 305 304 302 298 292 287 283 277 272 267 262 255 247 241 238 235 233
308 312 315 317 319 321 322 323 324 325 326 327 327 326 327 327 327 325 324 323 321 319 317 314 312 310 308 307 305 303 298 292 288 282 278 273 268 262 253 244 240 236 233 232
309 313 315 318 319 321 322 323 325 326 327 327 327 327 327 328 327 326 325 324 323 320 318 316 314 312 310 308 305 302 298 292 288 284 280 274 268 260 249 241 237 235 233 231
310 313 315 318 320 322 323 324 325 326 327 327 327 327 328 328 327 327 325 324 323 320 318 317 316 314 311 308 306 303 297 292 288 284 280 274 266 256 245 239 236 234 233 231
Height
5613 5615 5616 5617 5619 5621 5623 5625 5627 5628 5630 5632 5634 5636 5638 5640 5642 5644 5646 5649 5651 5652 5654 5656 5657 5658 5659 5659 5660 5661 5661 5662 5662 5663 5664 5665 5665 5666 5667 5668 5668 5669 5670 5670
5615 5616 5618 5619 5620 5622 5623 5625 5627 5628 5630 5631 5633 5635 5637 5639 5640 5642 5643 5645 5646 5647 5648 5649 5650 5650 5650 5650 5651 5651 5651 5651 5651 5652 5652 5652 5653 5653 5654 5654 5655 5656 5656 5657
5616 5617 5619 5621 5621 5622 5624 5625 5627 5628 5631 5631 5632 5634 5635 5636 5637 5638 5639 5640 5641 5641 5641 5642 5641 5641 5641 5640 5640 5640 5639 5639 5639 5639 5639 5639 5639 5640 5640 5641 5641 5642 5643 5643
5617 5619 5620 5623 5622 5623 5624 5626 5627 5628 5629 5630 5631 5632 5633 5633 5633 5634 5634 5634 5634 5634 5634 5633 5632 5631 5630 5629 5628 5627 5626 5626 5625 5625 5625 5625 5625 5625 5625 5626 5627 5627 5628 5629
5618 5619 5620 5622 5622 5623 5624 5625 5626 5627 5628 5629 5629 5629 5630 5629 5629 5629 5628 5628 5627 5626 5625 5624 5622 5621 5619 5617 5615 5614 5612 5611 5610 5609 5609 5609 5609 5609 5610 5611 5612 5612 5613 5614
5619 5620 5621 5623 5622 5623 5625 5625 5625 5625 5626 5626 5626 5626 5626 5625 5624 5623 5622 5620 5619 5618 5616 5614 5611 5609 5607 5604 5602 5600 5598 5596 5595 5594 5593 5593 5593 5593 5594 5594 5595 5596 5598 5599
5619 5619 5621 5621 5621 5623 5624 5625 5623 5623 5623 5622 5622 5622 5621 5619 5618 5616 5614 5612 5610 5608 5605 5603 5600 5597 5593 5590 5588 5585 5582 5580 5579 5578 5577 5577 5577 5577 5577 5578 5579 5580 5582 5583
5619 5619 5622 5620 5620 5621 5622 5620 5620 5620 5619 5618 5617 5616 5614 5613 5611 5608 5606 5603 5600 5597 5594 5590 5587 5583 5579 5576 5572 5569 5566 5564 5562 5561 5560 5559 5559 5560 5560 5561 5563 5564 5565 5567
5619 5621 5619 5619 5619 5619 5618 5618 5617 5616 5615 5614 5612 5610 5608 5606 5603 5600 5596 5593 5589 5585 5581 5577 5573 5568 5564 5560 5556 5553 5550 5547 5545 5543 5542 5542 5542 5543 5543 5544 5546 5547 5549 5551
5618 5618 5618 5617 5617 5616 5616 5615 5614 5612 5611 5609 5606 5604 5601 5598 5594 5590 5586 5581 5577 5572 5567 5563 5557 5553 5548 5544 5540 5536 5532 5530 5527 5526 5525 5524 5524 5525 5526 5527 5529 5531 5533 5535
5617 5617 5616 5616 5615 5614 5613 5611 5609 5607 5605 5602 5599 5596 5592 5588 5584 5579 5574 5568 5563 5558 5553 5547 5542 5536 5531 5526 5521 5518 5514 5512 5509 5508 5507 5506 5506 5507 5508 5510 5511 5514 5516 5518
5616 5615 5615 5614 5612 5610 5609 5607 5604 5602 5599 5595 5592 5588 5583 5578 5573 5567 5561 5555 5549 5543 5537 5531 5525 5518 5512 5507 5503 5500 5496 5493 5491 5489 5488 5487 5488 5489 5490 5492 5494 5496 5499 5502
5613 5612 5611 5609 5608 5606 5604 5601 5598 5595 5591 5587 5583 5578 5573 5567 5561 5554 5548 5541 5534 5527 5521 5514 5507 5501 5495 5489 5485 5482 5478 5475 5473 5471 5470 5469 5469 5471 5473 5475 5477 5480 5483 5486
5609 5608 5607 5605 5603 5600 5598 5595 5591 5588 5583 5579 5573 5568 5562 5555 5548 5541 5534 5526 5519 5512 5505 5498 5491 5485 5478 5473 5468 5464 5461 5458 5455 5454 5452 5452 5452 5453 5454 5457 5460 5463 5466 5469
5605 5604 5602 5600 5597 5594 5591 5588 5584 5579 5574 5569 5563 5557 5550 5543 5535 5527 5519 5511 5504 5496 5489 5482 5475 5468 5462 5457 5452 5448 5445 5441 5438 5436 5435 5434 5434 5435 5437 5439 5443 5446 5450 5453
5601 5599 5596 5594 5591 5588 5584 5580 5575 5570 5565 5559 5552 5546 5538 5530 5522 5513 5505 5496 5489 5481 5474 5466 5459 5452 5446 5441 5436 5432 5428 5425 5422 5420 5419 5418 5418 5418 5420 5422 5426 5429 5434 5437
5595 5593 5590 5587 5584 5580 5576 5572 5566 5561 5555 5548 5541 5533 5525 5516 5508 5499 5490 5482 5474 5466 5458 5450 5443 5437 5430 5425 5420 5416 5412 5409 5406 5404 5402 5402 5402 5403 5404 5407 5409 5413 5417 5421
5589 5587 5584 5580 5577 5572 5568 5563 5557 5551 5544 5537 5529 5521 5512 5503 5494 5485 5476 5467 5459 5450 5442 5434 5428 5421 5415 5409 5404 5400 5396 5393 5390 5388 5387 5386 5386 5387 5389 5391 5394 5398 5402 5406
5582 5580 5576 5573 5568 5564 5559 5553 5547 5540 5533 5525 5517 5508 5499 5489 5480 5471 5462 5453 5444 5435 5427 5419 5412 5406 5400 5394 5389 5385 5381 5378 5375 5373 5372 5371 5372 5372 5374 5376 5379 5383 5387 5392
5575 5572 5568 5565 5560 5555 5550 5544 5537 5530 5522 5513 5504 5495 5486 5476 5466 5457 5447 5437 5428 5420 5413 5405 5398 5391 5385 5380 5375 5371 5367 5364 5362 5360 5358 5357 5357 5358 5360 5362 5365 5369 5373 5378
5568 5564 5560 5556 5551 5546 5540 5533 5526 5518 5510 5501 5492 5482 5473 5463 5453 5443 5433 5423 5414 5405 5398 5391 5384 5378 5373 5368 5363 5359 5355 5352 5349 5347 5346 5345 5345 5346 5347 5350 5353 5356 5361 5366
5560 5556 5552 5547 5542 5536 5530 5523 5515 5507 5498 5489 5479 5470 5460 5450 5439 5429 5418 5409 5401 5392 5385 5378 5372 5366 5361 5356 5352 5348 5344 5340 5338 5335 5334 5334 5334 5335 5336 5338 5341 5345 5350 5355
5551 5547 5543 5538 5532 5526 5519 5512 5504 5495 5486 5477 5467 5457 5447 5437 5427 5417 5407 5397 5387 5380 5372 5366 5360 5355 5350 5345 5340 5336 5332 5329 5327 5325 5324 5324 5324 5325 5326 5328 5332 5335 5340 5345
5542 5538 5534 5528 5522 5516 5509 5501 5492 5484 5474 5465 5455 5445 5435 5425 5414 5403 5393 5384 5376 5368 5361 5355 5349 5344 5339 5334 5330 5326 5322 5319 5317 5316 5315 5315 5315 5316 5317 5319 5322 5326 5330 5335
5533 5529 5524 5519 5512 5505 5498 5490 5481 5472 5462 5452 5442 5432 5422 5412 5402 5391 5381 5373 5364 5357 5351 5345 5339 5334 5329 5324 5320 5317 5313 5311 5309 5308 5307 5307 5307 5308 5309 5311 5314 5318 5322 5327
5524 5520 5514 5508 5502 5495 5487 5479 5470 5461 5451 5441 5431 5420 5410 5400 5389 5380 5371 5362 5354 5347 5341 5335 5330 5325 5320 5316 5312 5308 5306 5303 5302 5301 5300 5300 5300 5300 5302 5304 5307 5311 5315 5319
5514 5510 5504 5498 5491 5484 5476 5467 5458 5449 5440 5430 5420 5409 5399 5389 5378 5369 5360 5352 5345 5338 5332 5326 5321 5316 5312 5308 5304 5301 5299 5297 5296 5295 5294 5294 5294 5295 5296 5299 5301 5305 5308 5312